Location: Bennemühlen
(52.5740°N, 9.7135°E)
Time: 14:32:02
(UTC+00:00)

Explorer 7 - Visible Passes

Search period start: 10 February 2026 00:00
Search period end: 20 February 2026 00:00
Orbit: 431 x 546 km, 50.2° (Epoch: 10 February)

Date Brightness Start Highest point End Pass type
(mag) Time Alt. Az. Time Alt. Az. Time Alt. Az.
10 Feb 7.3 18:17:48 10° SW 18:21:17 36° SSE 18:21:44 35° SE visible
10 Feb 9.6 19:55:40 10° WSW 19:56:08 13° WSW 19:56:08 13° WSW visible
11 Feb 7.5 17:52:25 10° SW 17:55:52 35° SSE 17:57:31 24° ESE visible
11 Feb 8.7 19:30:15 10° WSW 19:31:54 24° WSW 19:31:54 24° WSW visible
12 Feb 7.6 17:27:01 10° SW 17:30:25 34° SSE 17:33:14 14° E visible
12 Feb 7.5 19:04:48 10° WSW 19:07:37 44° SW 19:07:37 44° SW visible
13 Feb 7.6 17:01:34 10° SW 17:04:55 33° SSE 17:08:25 10° E visible
13 Feb 6.7 18:39:20 10° WSW 18:43:04 61° S 18:43:15 60° SSE visible
13 Feb 10.0 20:17:35 10° W 20:17:37 10° W 20:17:37 10° W visible
14 Feb 6.8 18:13:49 10° WSW 18:17:31 61° S 18:18:51 36° ESE visible
14 Feb 9.2 19:52:04 10° W 19:53:13 18° W 19:53:13 18° W visible
15 Feb 6.8 17:48:16 10° WSW 17:51:57 60° S 17:54:24 20° E visible
15 Feb 8.3 19:26:30 10° W 19:28:46 31° WSW 19:28:46 31° WSW visible
16 Feb 6.9 17:22:41 10° WSW 17:26:20 60° S 17:29:56 11° E visible
16 Feb 7.2 19:00:55 10° W 19:04:18 48° SSW 19:04:18 48° SSW visible
17 Feb 7.1 18:35:18 10° W 18:38:56 50° SSW 18:39:49 40° SSE visible
17 Feb 9.8 20:13:58 10° W 20:14:11 11° W 20:14:11 11° W visible
18 Feb 7.2 18:09:38 10° W 18:13:16 50° SSW 18:15:21 23° SE visible
18 Feb 9.2 19:48:17 10° W 19:49:43 17° WSW 19:49:43 17° WSW visible
19 Feb 7.2 17:43:57 10° W 17:47:33 51° SSW 17:50:53 13° ESE visible
19 Feb 8.6 19:22:33 10° W 19:25:15 21° SW 19:25:15 21° SW visible
